Location: *
(44.8523°N, 13.8460°E)
Time: 18:35:26
(UTC+00:00)

Daily predictions for brighter satellites

Satellite Brightness Start Highest point End
(mag) Time Altitude Azimuth Time Altitude Azimuth Time Altitude Azimuth
Cosmos 2285 Rocket 4.2 16:42:27 10° NNW 16:48:44 51° ENE 16:54:58 10° SE
Unknown 3.8 16:45:24 10° SW 16:49:28 58° SE 16:53:32 10° ENE
Unknown 3.8 16:47:01 10° SW 16:51:05 60° SE 16:55:11 10° ENE
Unknown 3.9 16:48:53 10° WSW 16:52:45 62° NNW 16:56:37 10° NE
Unknown 3.7 16:48:52 10° SW 16:52:59 67° SE 16:57:06 10° ENE
Cosmos 1606 Rocket 4.0 16:49:00 10° SSE 16:53:06 39° E 16:57:11 10° NNE
Cosmos 1242 Rocket 4.1 16:50:51 10° NNE 16:53:23 17° ENE 16:55:55 10° ESE
Unknown 3.7 16:50:18 10° SW 16:54:23 63° SE 16:58:30 10° ENE
Unknown 3.7 16:51:59 10° SW 16:56:05 66° SE 17:00:12 10° ENE
Cosmos 1470 2.8 16:52:48 10° S 16:56:47 83° E 17:00:47 10° N
Unknown 4.1 16:53:58 10° WSW 16:57:42 49° NNW 17:01:27 10° NE
Cosmos 1302 Rocket 4.4 16:53:16 10° SSW 16:58:27 69° WNW 17:03:42 10° NNE
Unknown 3.7 16:55:15 10° SW 16:59:22 69° SE 17:03:29 10° ENE
Cosmos 968 Rocket 3.6 16:54:41 10° NNW 16:59:53 56° ENE 17:05:02 10° SE
Cosmos 2278 Rocket 3.8 16:58:30 10° ESE 17:00:43 12° E 17:02:56 10° ENE
ASTEX 1 3.7 16:56:10 10° NNE 17:00:54 44° E 17:05:38 10° SSE
Cosmos 1758 Rocket 3.6 16:56:33 10° N 17:00:59 65° E 17:05:24 10° SSE
Unknown 3.6 16:56:58 10° SW 17:01:05 71° SE 17:05:13 10° ENE
Ariane Rocket 4.0 16:58:09 10° ESE 17:02:14 25° ENE 17:06:20 10° N
Unknown 3.6 16:58:36 10° SW 17:02:43 73° SE 17:06:52 10° ENE
Cosmos 1844 4.1 16:57:35 10° S 17:02:55 43° ESE 17:08:20 10° NE
Unknown 3.6 17:00:17 10° SW 17:04:25 75° SE 17:08:34 10° ENE
Unknown 3.6 17:03:35 10° SW 17:07:43 80° SSE 17:11:53 10° ENE
Unknown 3.6 17:05:20 10° SW 17:09:29 85° SE 17:13:38 10° ENE
Unknown 3.6 17:05:32 10° SW 17:09:40 89° NNW 17:13:50 10° ENE
Cosmos 1503 Rocket 4.0 17:04:38 10° NNW 17:09:47 65° ENE 17:14:55 10° SSE
Unknown 3.6 17:07:07 10° SW 17:11:16 89° NNW 17:15:26 10° ENE
YAOGAN 6 2.6 17:07:47 10° SSE 17:11:26 61° ENE 17:15:03 10° N
Cosmos 1992 Rocket 4.0 17:06:41 10° S 17:11:49 61° ESE 17:16:59 10° NNE
CZ-4C R/B 3.1 17:05:02 10° NW 17:12:18 88° SW 17:20:33 10° SE
Unknown 3.6 17:10:10 10° SW 17:14:19 88° SE 17:18:17 11° ENE
SKYMED 2 3.5 17:10:05 10° NNE 17:14:26 75° ESE 17:18:47 10° S
Unknown 3.6 17:13:30 10° WSW 17:17:39 88° NW 17:21:30 12° ENE
ATLAS 5 CENTAUR R/B 1.7 17:14:35 10° SW 17:18:49 80° NW 17:23:35 10° NE
Unknown 3.6 17:15:13 10° WSW 17:19:22 85° NNW 17:23:10 12° ENE
YAOGAN 1 2.5 17:15:58 10° SSE 17:20:14 65° ENE 17:24:32 10° N
H-2A R/B 3.8 17:19:01 13° ENE 17:20:17 14° NE 17:22:51 10° NNE
Unknown 3.6 17:16:50 10° WSW 17:20:58 83° NW 17:24:42 13° NE
Unknown 3.7 17:18:32 10° WSW 17:22:41 81° NNW 17:26:21 13° NE
SL-4 R/B 1.7 17:25:24 10° WNW 17:29:17 83° NNE 17:31:41 20° ESE
Unknown 3.8 17:25:13 10° WSW 17:29:17 67° NNW 17:32:40 15° NE
Unknown 3.8 17:25:11 10° WSW 17:29:19 74° NNW 17:32:43 15° NE
Unknown 3.8 17:26:50 10° WSW 17:30:57 72° NNW 17:34:17 16° NE
EO 1 Delta rocket 3.8 17:27:21 10° SSE 17:31:56 58° ENE 17:36:34 10° N
Cosmos 2263 Rocket 4.4 17:27:31 10° WSW 17:32:05 25° NW 17:36:41 10° N
CSL-04 Rocket 3.7 17:26:50 10° SSE 17:32:23 87° ENE 17:37:56 10° NNW
Unknown 3.8 17:28:32 10° WSW 17:32:39 70° NNW 17:35:56 16° NE
NOAA 11 4.3 17:27:38 10° SE 17:32:54 52° ENE 17:38:11 10° N
CZ-2D R/B 3.4 17:30:33 10° SSE 17:34:14 49° ENE 17:37:59 10° N
Unknown 3.8 17:30:11 10° WSW 17:34:18 69° NNW 17:37:30 16° NE
Cosmos 1726 Rocket 3.5 17:31:18 10° S 17:35:44 90° NNE 17:40:08 10° N
Unknown 3.9 17:31:49 10° WSW 17:35:57 67° NNW 17:39:03 17° NE
HJ-1C 4.2 17:37:07 27° E 17:37:50 30° ENE 17:40:50 10° N
Cosmos 1271 Rocket 3.0 17:34:35 10° NNW 17:38:32 71° W 17:42:30 10° S
Unknown 3.9 17:35:14 10° WSW 17:39:21 64° NNW 17:42:20 18° NE
Starlink (trailer) 4.0 17:36:52 10° WSW 17:40:59 63° NNW 17:43:53 18° NE
BREEZE M DEB (TANK) 2.1 17:39:30 10° WNW 17:41:51 69° NNE 17:44:18 24° ESE
Unknown 4.0 17:38:34 10° WSW 17:42:40 61° NNW 17:45:31 19° NE
Cosmos 2058 Rocket 2.9 17:38:34 10° S 17:42:55 70° E 17:47:16 10° NNE
Cosmos 1953 3.4 17:39:08 10° SSW 17:43:04 48° WNW 17:47:02 10° N
Cosmos 1821 Rocket 4.4 17:37:51 10° NNW 17:43:55 67° W 17:49:59 10° S
Cosmos 1605 Rocket 4.0 17:37:50 10° N 17:43:56 54° ENE 17:49:55 10° SSE
Unknown 4.3 17:40:08 10° W 17:44:04 47° NNW 17:46:49 18° NE
Unknown 4.0 17:40:12 10° WSW 17:44:18 60° NNW 17:47:05 19° NE
Lacrosse 5 3.3 17:41:31 10° NW 17:45:38 24° NNE 17:47:59 18° NE
Shenzhou-11 Module 2.4 17:43:35 10° WSW 17:46:12 38° SSE 17:46:27 36° SSE
Cosmos 1833 Rocket 3.6 17:43:06 10° N 17:48:01 30° NE 17:49:45 25° E
Cosmos 1727 Rocket 4.4 17:43:21 10° SSE 17:48:56 37° E 17:54:31 10° NNE
IRS-1A Rocket 4.3 17:45:12 10° SSE 17:50:35 57° ENE 17:55:58 10° N
Cosmos 1703 3.2 17:46:57 10° N 17:50:53 65° E 17:54:47 10° SSE
Unknown 4.2 17:46:53 10° WSW 17:50:57 55° NNW 17:53:27 22° NE
Unknown 4.2 17:46:58 10° WSW 17:51:02 54° NNW 17:53:32 22° NE
Unknown 4.2 17:47:45 10° WSW 17:51:50 54° NNW 17:54:17 22° NE
Cosmos 2228 3.8 17:48:37 10° SSW 17:52:55 56° WNW 17:57:14 10° N
ARGOS 4.3 17:52:56 23° ENE 17:53:17 24° ENE 17:57:30 10° N
Unknown 4.3 17:51:55 10° WSW 17:55:59 51° NNW 17:58:16 23° NE
Unknown 4.3 17:51:56 10° WSW 17:55:59 51° NNW 17:58:16 23° NE
Unknown 4.3 17:53:44 10° W 17:57:45 49° NNW 17:59:58 24° NE
COSMOS 2406 3.2 17:53:02 10° NNW 17:58:49 69° ENE 18:02:53 20° SE
Cosmos 1934 Rocket 4.2 17:54:18 10° N 18:00:37 78° W 18:06:58 10° S
Unknown 4.4 17:57:04 10° W 18:01:05 47° NNW 18:03:09 25° NE
Unknown 4.4 17:57:41 10° W 18:01:43 48° NNW 18:03:45 25° NE
COSMO-SKYMED 1 4.3 17:58:30 10° N 18:02:26 34° WNW 18:06:22 10° SW
Unknown 4.4 17:58:39 10° W 18:02:40 47° NNW 18:04:41 26° NE
Cosmos 1726 2.2 17:59:02 10° SSW 18:02:41 74° W 18:06:21 10° N
Cosmos 2082 Rocket 3.1 17:58:27 10° N 18:03:21 28° NE 18:04:05 27° ENE
Cosmos 1939 Rocket 2.8 18:00:26 10° S 18:04:22 82° WSW 18:08:24 10° NNW
Cosmos 921 Rocket 3.4 18:00:58 10° SSW 18:05:28 67° WNW 18:09:57 10° NNE
Unknown 4.4 18:01:52 10° W 18:05:53 47° NNW 18:07:44 27° NE
Cosmos 292 Rocket 3.6 18:01:10 10° SSW 18:05:53 75° ESE 18:10:39 10° NNE
Meteor 1-11 4.2 18:00:09 10° N 18:05:55 81° E 18:11:43 10° SSE
Cosmos 482 Debris 3.7 18:05:15 10° WNW 18:09:52 89° SW 18:10:07 76° SE
Cosmos 1356 4.0 18:09:37 10° SSW 18:13:00 58° WNW 18:16:26 10° N
Lacrosse 5 rocket 1.9 18:12:53 10° WNW 18:16:34 50° SW 18:17:44 36° S
CZ-4 R/B 4.1 18:18:25 10° SW 18:21:35 21° W 18:24:48 10° NW
Cosmos 2100 Rocket 4.2 18:16:33 10° N 18:22:29 44° ENE 18:23:03 43° E
Cosmos 1242 Rocket 4.4 18:25:03 10° NNW 18:28:23 32° W 18:31:40 10° SSW
Cosmos 1844 Rocket 4.3 18:25:40 10° WSW 18:30:47 34° NW 18:35:56 10° N
ADEOS Rocket 3.6 18:24:18 10° NNE 18:31:52 52° E 18:38:59 10° S
Cosmos 1908 4.1 18:29:14 10° SSW 18:33:02 49° WNW 18:36:51 10° N
Cosmos 1153 Rocket 4.3 18:28:13 10° N 18:34:24 84° E 18:38:15 24° S
SPOT 3 Rocket 3.4 18:39:51 68° ENE 18:39:51 68° ENE 18:44:58 10° N
Ariane Rocket 4.0 18:36:03 10° S 18:40:55 46° W 18:45:51 10° NNW
Cosmos 2278 Rocket 2.0 18:38:11 10° SSW 18:43:52 85° ESE 18:46:34 33° NNE
USA 238 DEB 3.9 18:42:09 10° SSW 18:47:26 49° SSE 18:47:26 49° SSE
USA 238 3.9 18:42:16 10° SSW 18:47:27 47° SSE 18:47:27 47° SSE
Cosmos 2061 Rocket 4.5 18:45:28 10° N 18:50:16 43° NE 18:50:16 43° NE
USA 234 3.4 18:57:30 54° SSE 18:57:30 54° SSE 19:03:10 10° SSW
H-2A R/B 2.3 18:59:39 65° N 18:59:39 65° N 19:04:13 10° NNW
ATLAS 5 CENTAUR R/B 4.2 19:01:17 10° WNW 19:04:21 18° NNW 19:07:08 12° N
CZ-2C R/B 3.9 19:10:55 46° N 19:10:55 46° N 19:15:02 10° N
Gbstr 26 Del rocket 4.2 19:10:52 10° WNW 19:17:24 76° NNE 19:17:24 76° NNE
NOSS 3-3 (A) 4.4 19:13:51 10° NW 19:21:22 75° NE 19:21:23 75° NE
NOSS 3-3 (C) 4.4 19:13:57 10° NW 19:21:27 74° NE 19:21:28 74° NE
Lacrosse 5 3.4 19:24:24 10° NW 19:27:11 32° NNW 19:27:11 32° NNW
BREEZE-M DEB (TANK) 4.4 19:23:15 10° WSW 19:27:40 32° W 19:27:40 32° W
Resurs 01 Rocket 4.3 19:35:40 14° NNW 19:35:40 14° NNW 19:36:18 10° NNW
Cosmos 1833 Rocket 3.6 19:26:46 10° NW 19:31:28 45° W 19:31:28 45° W
Cosmos 1459 Rocket 4.3 19:26:27 10° NNW 19:32:12 61° WNW 19:32:12 61° WNW
ARGOS 4.1 19:34:28 44° NW 19:34:28 44° NW 19:38:30 10° NNW
Cosmos 1802 Rocket 4.5 19:33:31 10° NNW 19:38:55 58° NW 19:38:55 58° NW
Cosmos 2082 Rocket 3.4 19:42:12 10° NW 19:45:57 38° WNW 19:45:57 38° WNW
